Location: downtown San Diego
(32.7310°N, 117.1990°W)
Time: 17:59:43
(UTC-07:00)

Cosmos 1743 - Pass Details

Date: 19 May 2017
Orbit: 513 x 530 km, 82.6° (Epoch: 26 May)

Event Time Altitude Azimuth Distance (km) Brightness Sun altitude
Rises 21:52:44 0° 352° (N) 2,654 7.1 -23.0°
Reaches altitude 10° 21:54:52 10° 351° (N) 1,765 6.1 -23.4°
Enters shadow 21:58:24 71° 321° (NW) 559 2.9 -23.9°
